Regional Weather Roundup
Issued by NWS

Home | Current Version | Previous Version | Text Only | Print | Product List | Glossary Off
Versions: 1 2 3 4 5 6 7 8 9 10 11 12 13 14 15 16 17 18 19 20 21 22 23 24 25 26 27 28 29 30 31 32 33 34 35 36 37 38 39 40 41 42 43 44 45 46 47 48 49 50

000
ASUS43 KOAX 281802
RWRNE

WEATHER ROUNDUP FOR NEBRASKA
NATIONAL WEATHER SERVICE OMAHA NE
100 PM CDT THU MAY 28 2015

NOTES: SATELLITE DATA IS BEING USED TO AUGMENT CLOUD COVER ABOVE
       12000 FEET.
       "FAIR" INDICATES FEW OR NO CLOUDS BELOW 12,000 FEET WITH NO
       SIGNIFICANT WEATHER AND/OR OBSTRUCTIONS TO VISIBILITY.

  * THESE STATIONS DO NOT REPORT WEATHER SUCH AS RAIN...SNOW OR FOG.

NEZ001>004-019>022-054>056-281900-
NEBRASKA PANHANDLE

CITY           SKY/WX    TMP DP  RH WIND       PRES   REMARKS
SCOTTSBLUFF    SUNNY     73  50  44 W13       29.99F
6HR MIN TEMP:  50; 6HR MAX TEMP:  73;

ALLIANCE       MOSUNNY   72  49  44 W6        29.96F
6HR MIN TEMP:  52; 6HR MAX TEMP:  73;

CHADRON        MOSUNNY   70  51  51 NW13      29.95F
6HR MIN TEMP:  57; 6HR MAX TEMP:  72;

SIDNEY         MOSUNNY   74  52  46 N8        30.01S
6HR MIN TEMP:  54; 6HR MAX TEMP:  74; 6HR PCP:  0.03;

$$

NEZ057>060-069>072-079>082-281900-
SOUTHWEST NEBRASKA

CITY           SKY/WX    TMP DP  RH WIND       PRES   REMARKS
NORTH PLATTE   CLOUDY    68  58  70 S12       29.98F
6HR MIN TEMP:  54; 6HR MAX TEMP:  70;

IMPERIAL       CLOUDY    66  57  72 S5        29.99F
6HR MIN TEMP:  51; 6HR MAX TEMP:  66;

MCCOOK         PTSUNNY   73  61  65 S13       29.98F
6HR MIN TEMP:  54; 6HR MAX TEMP:  74;

$$

NEZ005>010-023>029-035>040-094-281900-
NORTH CENTRAL NEBRASKA

CITY           SKY/WX    TMP DP  RH WIND       PRES   REMARKS
VALENTINE      PTSUNNY   75  58  55 SE14      29.93S
6HR MIN TEMP:  58; 6HR MAX TEMP:  76;

BROKEN BOW     PTSUNNY   74  59  59 S15G25    29.98S
6HR MIN TEMP:  56; 6HR MAX TEMP:  74;

ORD            PTSUNNY   75  57  53 S18       29.97S
6HR MIN TEMP:  55; 6HR MAX TEMP:  76;

$$

NEZ041-046>049-061>064-073>077-083>087-281900-
SOUTH CENTRAL NEBRASKA

CITY           SKY/WX    TMP DP  RH WIND       PRES   REMARKS
GRAND ISLAND   CLOUDY    75  59  57 S14       30.00S
6HR MIN TEMP:  61; 6HR MAX TEMP:  75;

HASTINGS       CLOUDY    71  59  65 S13G24    30.01S
6HR MIN TEMP:  60; 6HR MAX TEMP:  71;

KEARNEY *      CLOUDY    72  57  60 S15       30.01S
$$

NEZ011>018-030>034-042>045-281900-
NORTHEAST NEBRASKA

CITY           SKY/WX    TMP DP  RH WIND       PRES   REMARKS
NORFOLK        PTSUNNY   76  61  59 SE12G20   29.98S
6HR MIN TEMP:  64; 6HR MAX TEMP:  77;

COLUMBUS *     PTSUNNY   75  63  64 S14       30.00F
TEKAMAH        PTSUNNY   74  60  61 SE18      30.01S
6HR MIN TEMP:  58; 6HR MAX TEMP:  75;

$$

NEZ050>053-065>068-078-088>093-281900-
SOUTHEAST NEBRASKA

CITY           SKY/WX    TMP DP  RH WIND       PRES   REMARKS
LINCOLN        CLOUDY    69  63  81 SE13      30.03S
6HR MIN TEMP:  63; 6HR MAX TEMP:  69; 6HR PCP:  0.05;

OMAHA EPPLEY   CLOUDY    71  61  70 S13       30.03S
6HR MIN TEMP:  62; 6HR MAX TEMP:  71; 6HR PCP: TRACE;

FALLS CITY     LGT RAIN  68  63  84 SE15      30.06R
6HR MIN TEMP:  62; 6HR MAX TEMP:  69; 6HR PCP:  0.18;

$$

NEZ044-045-051>053-067-281900-
OMAHA AREA

CITY           SKY/WX    TMP DP  RH WIND       PRES   REMARKS
OMAHA EPPLEY   CLOUDY    71  61  70 S13       30.03S
6HR MIN TEMP:  62; 6HR MAX TEMP:  71; 6HR PCP: TRACE;

OFFUTT AFB     CLOUDY    70  63  77 SE10      30.03S
$$


USA.gov is the U.S. government's official web portal to all federal, state and local government web resources and services.